Overview Statistics Trail Chart Weather Telemetry Raw packets
 

This is the latest recevied weather packets stored in our database for station/object TB1YZC-13. If no packets are shown the sender has not sent any weather packets the latest 10 day(s).

<< 26 27 28 29 30 31 32 >>
Time Temp. Humidity Pressure Rain* Wind** Luminosity Snow
1788257720 28.89° C 53% 1017.8 hPa - - - -
1788257117 28.33° C 55% 1017.8 hPa - - - -
1788256514 29.44° C 52% 1017.7 hPa - - - -
1788255911 28.33° C 52% 1017.9 hPa - - - -
1788255308 28.33° C 54% 1018 hPa - - - -
1788254704 28.89° C 53% 1018 hPa - - - -
1788254101 27.78° C 55% 1018.1 hPa - - - -
1788253498 27.78° C 56% 1018.1 hPa - - - -
1788252895 27.78° C 55% 1018.1 hPa - - - -
1788252292 27.78° C 58% 1018.2 hPa - - - -
1788251688 27.22° C 58% 1018.3 hPa - - - -
1788251085 27.22° C 61% 1018.3 hPa - - - -
1788250482 26.67° C 64% 1018.3 hPa - - - -
1788249879 26.11° C 65% 1018.4 hPa - - - -
1788249276 26.11° C 64% 1018.4 hPa - - - -
1788248673 25.56° C 67% 1018.6 hPa - - - -
1788248070 25.56° C 68% 1018.5 hPa - - - -
1788247466 25.56° C 68% 1018.6 hPa - - - -
1788246863 26.11° C 68% 1018.5 hPa - - - -
1788246260 25° C 70% 1018.5 hPa - - - -
1788245656 25° C 71% 1018.5 hPa - - - -
1788245053 24.44° C 74% 1018.5 hPa - - - -
1788244450 24.44° C 76% 1018.4 hPa - - - -
1788243847 23.89° C 76% 1018.3 hPa - - - -
1788243244 23.33° C 79% 1018.4 hPa - - - -

* Rain since midnight (hover to see other rain measurements)
** Current wind speed in m/s (hover to see current wind gust speed)